Location: Newark
(43.0000°N, 1.6781°W)
Time: 23:18:31
(UTC+00:00)

CAS-4B - Pass Details

Date: 10 December 2022
Orbit: 515 x 531 km, 43.0° (Epoch: 04 February)

Event Time Altitude Azimuth Distance (km) Brightness Sun altitude
Exits shadow 04:00:49 11° 88° (E) 1,735 ? -36.8°
Drops below altitude 10° 04:00:55 10° 87° (E) 1,773 ? -36.7°
Sets 04:03:16 0° 79° (E) 2,668 ? -36.3°
